Probability
0 0 0 0 0 0 0 0 0 0 0 0 0 0 0 0 0 0 0 0 0 0 0 0 0 0 0 0 0 0 0 0 0 0 0 0 0 0 0 0 0 0 0
0 0 0 0 0 0 0 0 0 0 0 0 0 0 0 0 0 0 0 0 0 0 0 0 0 0 0 0 0 0 0 0 0 0 0 0 0 0 0 0 0 0 0
0 0 0 0 0 0 0 0 0 0 0 0 0 0 0 0 0 0 0 0 0 0 0 0 0 0 0 0 0 0 0 0 0 0 0 0 0 0 0 0 0 0 0
0 0 0 0 0 0 0 0 0 0 0 0 0 0 0 0 0 0 0 0 0 0 0 0 0 0 0 0 0 0 0 0 0 0 0 0 0 0 0 0 0 0 0
0 0 0 0 0 0 0 0 0 0 0 0 0 0 0 0 0 0 0 0 0 0 0 0 0 0 0 0 0 0 0 0 0 0 0 0 0 0 0 0 0 0 0
0 0 0 0 0 0 0 0 0 0 0 0 0 0 0 0 0 0 0 0 0 0 0 0 0 0 0 0 0 0 0 0 0 0 0 0 0 0 0 0 0 0 0
0 0 0 0 0 0 0 0 0 0 0 0 0 0 0 0 0 0 0 0 0 0 0 0 0 0 0 0 0 0 0 0 0 0 0 0 0 0 0 0 0 0 0
0 0 0 0 0 0 0 0 0 0 0 0 0 0 0 0 0 0 0 0 0 0 0 0 0 0 0 0 0 0 0 0 0 0 0 0 0 0 0 0 0 0 0
0 0 0 0 0 0 0 0 0 0 0 0 0 0 0 0 0 0 0 0 0 0 0 0 0 0 0 0 0 0 0 0 0 0 0 0 0 0 0 0 0 0 0
0 0 0 0 0 0 0 0 0 0 0 0 0 0 0 0 0 0 0 0 0 0 0 0 0 0 0 0 0 0 0 0 0 0 0 0 0 0 0 0 0 0 0
0 0 0 0 0 0 0 0 0 0 0 0 0 0 0 0 0 0 0 0 0 0 0 0 0 0 0 0 0 0 0 0 0 0 0 0 0 0 0 0 0 0 0
0 0 0 0 0 0 0 0 0 0 0 0 0 0 0 0 0 0 0 0 0 0 0 0 0 0 0 0 0 0 0 0 0 0 0 0 0 0 0 0 0 0 0
0 0 0 0 0 0 0 0 0 0 0 0 0 0 0 0 0 0 0 0 0 0 0 0 0 0 0 0 0 0 0 0 0 0 0 0 0 0 0 0 0 0 0
0 0 0 0 0 0 0 0 0 0 0 0 0 0 0 0 0 0 0 0 0 0 0 0 0 0 0 0 0 0 0 0 0 0 0 0 0 0 0 0 0 0 0
0 0 0 0 0 0 0 0 0 0 0 0 0 0 0 0 0 0 0 0 0 0 0 0 0 0 0 0 0 0 0 0 0 0 0 0 0 0 0 0 0 0 0
0 0 0 0 0 0 0 0 0 0 0 0 0 0 0 0 0 0 0 0 0 0 0 0 0 0 0 0 0 0 0 0 0 0 0 0 0 0 0 0 0 0 0
0 0 0 0 0 0 0 0 0 0 0 0 0 0 0 0 0 0 0 0 0 0 0 0 0 0 0 0 0 0 0 0 0 0 0 0 0 0 0 0 0 0 0
0 0 0 0 0 0 0 0 0 0 0 0 0 0 0 0 0 0 0 0 0 0 0 0 0 0 0 0 0 0 0 0 0 0 0 0 0 0 0 0 0 0 0
0 0 0 0 0 0 0 0 0 0 0 0 0 0 0 0 0 0 0 0 0 0 0 0 0 0 0 0 0 0 0 0 0 0 0 0 0 0 0 0 0 0 0
0 0 0 0 0 0 0 0 0 0 0 0 0 0 0 0 0 0 0 0 0 0 0 0 0 0 0 0 0 0 0 0 0 0 0 0 0 0 0 0 0 0 0
0 0 0 0 0 0 0 0 0 0 0 0 0 0 0 0 0 0 0 0 0 0 0 0 0 0 0 0 0 0 0 0 0 0 0 0 0 0 0 0 0 0 0
0 0 0 0 0 0 0 0 0 0 0 0 0 0 0 0 0 0 0 0 0 0 0 0 0 0 0 0 0 0 0 0 0 0 0 0 0 0 0 0 0 0 0
0 0 0 0 0 0 0 0 0 0 0 0 0 0 0 0 0 0 0 0 0 0 0 0 0 0 0 0 0 0 0 0 0 0 0 0 0 0 0 0 0 0 0
0 0 0 0 0 0 0 0 0 0 0 0 0 0 0 0 0 0 0 0 0 0 0 0 0 0 0 0 0 0 0 0 0 0 0 0 0 0 0 0 0 0 0
0 0 0 0 0 0 0 0 0 0 0 0 0 0 0 0 0 0 0 0 0 0 0 0 0 0 0 0 0 0 0 0 0 0 0 0 0 0 0 0 0 0 0
0 0 0 0 0 0 0 0 0 0 0 0 0 0 0 0 0 0 0 0 0 0 0 0 0 0 0 0 0 0 0 0 0 0 0 0 0 0 0 0 0 0 0
Height
5636 5638 5641 5643 5645 5648 5650 5652 5654 5656 5658 5660 5661 5663 5664 5665 5666 5667 5668 5669 5669 5670 5670 5670 5670 5669 5669 5668 5666 5665 5663 5661 5660 5660 5657 5655 5652 5650 5646 5643 5640 5636 5632
5623 5626 5628 5630 5632 5634 5637 5639 5641 5642 5644 5646 5647 5648 5649 5651 5652 5653 5654 5655 5656 5656 5657 5657 5657 5656 5656 5655 5654 5653 5651 5649 5647 5647 5645 5642 5640 5637 5634 5631 5628 5624 5620
5610 5612 5614 5616 5618 5620 5622 5625 5626 5628 5629 5631 5632 5633 5635 5636 5637 5639 5640 5641 5642 5643 5643 5644 5644 5642 5642 5642 5641 5640 5638 5636 5634 5633 5632 5629 5627 5624 5622 5619 5615 5611 5607
5597 5598 5601 5603 5604 5606 5608 5610 5612 5613 5614 5616 5617 5618 5620 5621 5622 5624 5625 5627 5628 5629 5629 5630 5630 5629 5629 5628 5627 5626 5625 5623 5621 5619 5618 5617 5614 5611 5609 5606 5602 5598 5595
5583 5584 5586 5588 5589 5591 5594 5595 5597 5598 5599 5601 5602 5603 5605 5606 5608 5609 5611 5612 5613 5614 5615 5616 5616 5615 5615 5614 5614 5613 5611 5610 5608 5606 5605 5603 5601 5599 5596 5593 5589 5586 5581
5568 5569 5571 5573 5575 5577 5579 5580 5582 5583 5585 5586 5588 5589 5590 5592 5594 5595 5596 5597 5598 5600 5601 5601 5601 5601 5600 5600 5599 5599 5598 5596 5595 5593 5591 5590 5588 5585 5582 5579 5576 5572 5569
5555 5556 5557 5559 5560 5562 5564 5566 5567 5569 5571 5572 5574 5575 5577 5578 5579 5580 5581 5582 5584 5585 5586 5586 5587 5586 5586 5585 5585 5584 5583 5582 5581 5580 5578 5576 5574 5572 5568 5566 5562 5558 5555
5541 5542 5543 5544 5546 5547 5549 5551 5553 5555 5556 5558 5560 5561 5562 5564 5565 5566 5566 5567 5569 5571 5571 5572 5572 5572 5572 5572 5571 5570 5570 5569 5568 5566 5564 5563 5560 5557 5555 5552 5548 5544 5540
5527 5528 5529 5530 5531 5533 5535 5537 5539 5541 5542 5544 5546 5547 5548 5550 5551 5552 5553 5554 5555 5557 5558 5558 5558 5558 5558 5557 5557 5556 5556 5555 5554 5552 5550 5548 5546 5543 5540 5537 5533 5530 5527
5514 5515 5516 5516 5517 5519 5521 5523 5525 5527 5528 5530 5532 5533 5535 5536 5538 5539 5539 5540 5542 5544 5545 5545 5545 5545 5544 5543 5543 5543 5542 5541 5540 5538 5536 5534 5532 5529 5526 5523 5520 5516 5512
5500 5501 5502 5503 5504 5506 5508 5509 5511 5513 5515 5517 5519 5520 5521 5523 5524 5525 5526 5526 5528 5530 5531 5532 5532 5532 5531 5530 5529 5529 5528 5527 5525 5523 5521 5520 5517 5515 5512 5509 5505 5502 5498
5488 5489 5490 5491 5492 5493 5495 5496 5498 5499 5501 5503 5505 5507 5508 5509 5511 5512 5513 5514 5515 5516 5518 5518 5518 5518 5517 5516 5516 5515 5514 5512 5511 5509 5507 5505 5503 5501 5498 5495 5491 5487 5483
5476 5476 5477 5478 5479 5480 5482 5483 5485 5486 5488 5490 5492 5494 5495 5497 5498 5499 5500 5501 5501 5503 5504 5505 5504 5504 5504 5503 5502 5502 5500 5499 5497 5495 5494 5492 5489 5487 5484 5481 5477 5474 5470
5464 5464 5465 5466 5467 5468 5469 5470 5472 5473 5475 5477 5479 5480 5482 5483 5485 5486 5487 5488 5489 5489 5490 5491 5491 5491 5490 5490 5490 5489 5488 5486 5484 5483 5481 5479 5476 5474 5471 5468 5464 5461 5457
5452 5453 5454 5454 5455 5456 5457 5458 5459 5461 5462 5464 5466 5467 5468 5470 5472 5473 5473 5475 5476 5477 5478 5478 5478 5478 5478 5478 5477 5476 5475 5474 5472 5470 5468 5466 5464 5461 5458 5455 5452 5448 5445
5441 5442 5442 5443 5444 5444 5445 5447 5447 5449 5450 5452 5453 5454 5455 5457 5458 5460 5461 5462 5464 5465 5465 5466 5466 5466 5466 5466 5465 5464 5463 5462 5460 5458 5456 5454 5452 5449 5446 5442 5439 5436 5433
5430 5431 5431 5432 5432 5433 5434 5435 5436 5438 5438 5440 5441 5442 5443 5445 5446 5447 5448 5450 5451 5452 5452 5453 5454 5454 5454 5454 5453 5452 5451 5450 5448 5446 5444 5442 5440 5437 5434 5431 5428 5425 5421
5419 5420 5420 5420 5421 5421 5422 5423 5425 5426 5427 5428 5429 5430 5432 5433 5434 5435 5436 5438 5439 5440 5441 5441 5442 5442 5442 5442 5441 5441 5439 5438 5436 5435 5432 5430 5427 5425 5423 5420 5417 5414 5410
5409 5409 5409 5409 5409 5410 5411 5412 5413 5414 5416 5417 5418 5419 5420 5422 5423 5424 5425 5427 5428 5429 5429 5430 5430 5430 5430 5430 5430 5429 5428 5427 5425 5423 5421 5419 5416 5414 5412 5409 5406 5403 5399
5399 5398 5398 5398 5398 5399 5400 5401 5402 5404 5405 5406 5407 5409 5410 5411 5412 5414 5415 5416 5417 5418 5419 5419 5420 5420 5419 5419 5419 5418 5417 5416 5414 5412 5410 5408 5406 5404 5401 5398 5395 5392 5389
5389 5388 5388 5387 5388 5388 5389 5390 5391 5393 5394 5395 5397 5398 5399 5401 5402 5403 5404 5405 5406 5408 5409 5409 5409 5409 5409 5409 5408 5407 5406 5405 5404 5402 5400 5398 5396 5393 5391 5388 5385 5382 5378
5379 5378 5377 5377 5378 5378 5379 5380 5381 5382 5384 5385 5387 5388 5389 5391 5392 5393 5395 5396 5397 5398 5399 5399 5399 5399 5399 5399 5398 5397 5396 5395 5394 5392 5390 5388 5386 5384 5381 5378 5375 5372 5368
5369 5369 5368 5368 5368 5369 5370 5371 5372 5373 5374 5376 5377 5379 5380 5382 5383 5384 5385 5387 5387 5388 5389 5389 5390 5390 5390 5389 5388 5387 5387 5385 5384 5382 5381 5379 5376 5374 5371 5368 5365 5362 5359
5361 5360 5360 5360 5360 5360 5361 5362 5363 5364 5365 5367 5368 5370 5371 5373 5374 5375 5377 5378 5378 5379 5380 5380 5381 5381 5380 5380 5379 5378 5377 5376 5375 5373 5371 5369 5367 5364 5361 5359 5356 5353 5350
5353 5352 5352 5352 5352 5352 5353 5354 5355 5356 5357 5358 5360 5361 5363 5364 5366 5367 5368 5369 5370 5370 5371 5371 5372 5372 5372 5371 5371 5370 5368 5367 5365 5364 5362 5360 5358 5355 5352 5350 5347 5344 5341
5345 5345 5345 5344 5344 5345 5345 5346 5347 5348 5349 5350 5352 5353 5355 5356 5358 5359 5360 5360 5361 5362 5363 5363 5364 5364 5364 5363 5363 5362 5360 5359 5357 5355 5354 5351 5349 5347 5344 5342 5339 5337 5334
Wind_Speed
50 50 50 50 51 51 51 51 52 52 52 52 52 53 53 53 53 53 52 51 50 50 50 49 48 48 49 48 48 48 48 48 48 47 47 47 47 47 48 48 49 49 49
50 51 51 51 52 52 51 52 52 53 53 53 54 54 54 54 54 54 53 52 51 50 50 50 49 49 49 49 49 50 50 50 50 49 48 49 49 48 48 48 49 50 49
49 50 50 51 51 52 52 52 52 53 54 54 54 55 54 55 55 55 53 53 52 51 50 50 50 50 49 50 50 50 50 51 50 50 49 49 48 48 49 49 49 50 50
48 49 50 51 51 52 53 53 53 54 54 55 55 54 54 54 55 54 53 53 53 52 51 51 51 51 51 51 51 51 51 51 50 49 49 49 48 49 49 49 49 50 50
47 49 50 51 51 52 53 54 54 55 55 55 55 53 53 54 54 53 53 53 53 53 53 53 52 52 53 52 52 52 51 51 50 50 50 50 50 50 50 49 49 49 50
47 48 49 50 52 53 52 52 53 54 54 54 54 53 52 52 52 52 52 52 52 52 53 53 53 53 52 52 51 50 50 50 50 50 50 50 50 50 49 49 49 50 51
47 48 49 50 51 52 53 52 52 53 53 53 53 52 51 51 51 51 51 51 51 51 51 52 53 52 52 52 52 51 50 49 49 49 50 49 49 49 49 50 50 51 50
47 47 49 50 51 51 52 52 51 51 52 52 51 51 50 49 50 49 49 49 49 49 49 50 50 50 50 51 51 49 49 49 49 49 49 48 49 49 49 50 50 50 50
46 47 48 49 50 50 51 51 50 50 50 50 49 49 49 48 49 48 48 49 48 48 48 48 48 48 48 48 47 47 47 48 48 48 48 48 49 49 49 50 50 50 50
44 45 46 47 48 48 49 49 49 48 48 48 48 47 47 47 48 48 49 49 48 48 47 47 46 46 46 47 47 47 48 48 49 49 49 49 49 49 50 50 50 50 50
42 43 44 45 46 46 47 48 48 48 48 48 47 47 46 46 47 47 47 47 47 47 47 46 46 45 46 46 47 47 48 48 49 49 49 50 50 50 50 50 50 50 51
41 42 42 43 43 44 44 45 46 47 48 48 48 47 46 45 45 46 46 46 46 47 47 46 46 46 46 46 47 48 48 48 48 48 48 49 49 50 50 50 50 50 50
40 40 40 41 42 43 44 44 44 44 44 44 45 45 45 45 45 44 45 46 46 47 46 46 46 46 46 46 46 46 46 46 46 46 47 47 47 48 49 49 49 49 49
39 38 38 39 39 40 41 42 42 43 44 44 45 44 44 45 46 45 45 45 45 44 44 44 44 44 44 44 44 45 45 44 44 44 44 45 45 45 46 47 47 47 47
37 37 36 37 38 38 39 41 41 41 41 42 43 43 44 44 45 45 44 43 43 43 44 43 42 42 42 42 42 42 42 43 43 43 43 43 43 44 44 45 45 45 45
36 36 36 37 37 38 39 39 40 40 41 41 40 41 41 42 43 43 43 42 42 42 42 43 42 41 41 41 41 41 41 42 42 42 42 42 42 42 42 42 43 43 43
36 36 36 36 37 37 38 38 39 39 40 40 39 39 39 39 39 40 40 40 40 40 41 41 40 40 39 39 39 39 39 39 39 39 40 41 41 41 41 41 41 41 41
35 35 36 36 36 36 37 37 37 37 37 38 38 37 37 37 37 37 37 38 38 38 38 37 37 38 38 38 38 38 37 37 37 38 39 39 39 39 39 39 39 39 40
34 34 35 35 35 35 35 36 36 36 36 35 35 35 36 36 36 36 36 36 36 36 35 34 34 35 35 35 36 36 36 36 36 37 37 38 37 37 37 37 38 38 39
33 34 34 34 34 35 35 36 36 35 35 34 34 34 34 34 34 34 34 34 34 34 33 33 33 33 33 34 34 34 35 35 36 35 35 35 35 36 36 36 36 37 38
32 32 32 32 32 33 33 34 34 34 34 33 32 32 32 32 32 32 32 32 32 31 32 32 32 32 32 32 32 33 33 33 33 33 34 34 34 34 35 35 35 36 36
30 30 31 31 31 31 31 31 30 30 30 30 29 30 30 30 29 29 29 29 29 30 30 30 30 30 30 30 30 30 31 32 32 32 32 33 33 33 34 34 35 35 34
29 28 28 27 27 27 28 28 29 29 28 28 28 28 28 27 27 27 27 27 28 28 29 29 29 28 29 29 29 29 29 29 30 31 31 32 32 33 33 34 34 33 32
26 26 25 25 26 25 25 26 27 27 27 27 27 27 27 26 26 26 26 26 27 28 28 28 27 28 27 27 27 27 28 28 29 30 30 30 31 32 32 32 31 30 31
24 24 24 24 24 25 25 25 25 25 25 26 25 26 26 26 25 26 25 25 25 26 27 26 26 26 26 26 26 26 26 27 28 29 29 30 30 30 30 29 28 28 28
24 23 23 24 24 24 23 23 23 24 24 25 24 24 25 25 25 25 24 24 24 25 25 25 25 24 24 24 24 25 25 26 27 27 27 27 27 27 26 25 25 25 25
Wind_Direction
255 254 254 254 255 256 256 257 258 258 259 260 262 262 262 263 264 265 266 267 269 269 270 271 272 273 275 277 278 279 280 281 283 283 285 286 286 288 289 290 292 293 294
257 256 255 255 256 256 257 257 258 259 259 260 262 262 263 263 263 264 265 266 267 269 269 270 271 273 274 276 277 278 279 281 282 283 285 285 286 287 289 290 292 293 294
258 257 256 257 257 258 258 258 259 260 261 261 262 263 263 263 263 263 264 265 266 268 268 269 270 272 273 275 276 278 279 280 282 283 284 286 286 287 289 290 291 292 294
258 257 257 258 259 259 260 259 259 260 261 262 262 263 263 263 264 264 264 265 266 266 267 268 270 271 272 274 276 277 278 279 281 282 284 285 286 288 289 291 292 293 294
260 258 257 258 259 259 259 260 260 260 261 262 262 262 263 264 264 264 264 264 265 265 267 268 270 272 272 274 275 276 277 279 280 282 283 284 286 288 289 291 292 293 294
262 260 259 259 259 259 260 260 261 261 262 261 261 262 263 263 263 263 263 264 265 266 268 269 270 271 272 274 274 276 277 279 280 281 283 284 286 288 288 290 291 292 293
262 261 261 261 261 260 260 261 261 261 262 262 262 262 262 262 262 263 263 264 265 267 268 269 270 271 273 274 275 275 276 278 279 281 283 285 286 287 288 289 291 292 293
263 262 262 261 261 261 260 261 262 262 262 262 263 263 263 263 263 263 263 264 265 266 267 269 270 271 272 273 274 276 277 278 279 281 284 285 286 286 288 290 291 292 293
264 264 264 263 261 261 260 261 262 262 261 262 263 263 264 264 263 263 264 265 266 267 268 268 270 271 272 273 274 276 277 279 280 282 284 285 286 286 288 290 291 293 294
264 264 265 264 263 262 260 259 260 261 262 262 263 263 264 264 264 264 266 266 267 267 267 268 270 271 271 272 275 276 278 279 281 282 283 284 285 287 289 290 291 293 294
265 264 263 264 263 263 261 259 260 260 261 263 263 264 264 264 263 263 264 264 265 265 266 268 269 270 272 274 275 277 279 280 281 282 283 284 284 286 288 290 291 293 293
268 266 264 263 263 263 263 262 261 263 264 264 265 264 263 263 263 263 263 264 264 265 267 269 269 270 272 274 276 277 279 280 281 282 283 284 285 286 288 289 291 292 293
269 267 265 264 264 263 263 263 264 264 263 263 264 264 263 263 263 264 265 266 266 267 267 268 269 270 272 274 276 277 279 280 281 282 283 285 286 287 288 289 290 292 293
270 269 267 265 265 264 264 264 264 264 264 264 263 263 264 264 264 264 266 266 266 266 267 268 270 270 272 275 277 278 280 281 282 283 284 285 286 288 288 289 290 292 293
270 270 268 267 266 265 264 265 265 264 264 264 264 263 264 264 264 264 265 265 266 266 267 268 269 271 274 276 277 278 279 281 282 283 285 286 287 288 289 290 291 292 293
269 269 269 269 267 266 265 264 264 264 264 264 265 265 265 265 265 265 265 266 266 266 267 268 270 272 274 276 277 278 279 281 283 283 285 287 288 288 290 291 292 293 294
270 270 270 269 268 268 267 266 265 264 264 264 263 264 264 264 264 264 265 266 266 267 268 269 270 271 273 275 277 278 280 281 284 285 286 287 288 288 289 290 292 294 295
271 271 271 270 269 268 266 266 265 263 263 262 263 263 262 262 264 265 265 266 267 269 270 270 270 271 272 274 277 279 280 282 283 284 286 288 288 288 289 290 293 295 296
273 273 272 271 269 267 265 264 264 263 264 263 263 262 261 262 263 264 266 266 268 269 269 269 270 271 272 274 277 278 280 282 283 285 287 287 287 288 289 291 294 296 298
274 274 273 271 269 267 265 265 264 264 263 262 261 262 262 262 263 265 265 265 266 266 267 268 270 272 273 275 276 278 280 282 284 287 289 288 288 289 291 293 296 297 298
273 273 273 271 269 268 267 267 265 263 262 262 262 263 263 264 265 264 264 264 265 265 267 269 271 272 274 275 277 279 280 282 284 287 288 288 289 290 293 294 296 297 297
276 275 274 272 270 268 266 265 264 263 262 262 262 262 263 263 263 264 264 264 266 268 270 273 273 273 276 278 279 280 281 282 284 285 287 288 290 292 294 296 297 298 298
277 277 275 271 269 267 266 265 264 263 262 262 262 262 261 262 263 263 264 265 267 269 271 272 272 274 277 278 279 281 282 283 285 287 288 290 291 293 295 296 297 298 299
277 277 274 271 269 268 267 266 265 264 264 263 261 261 261 261 263 264 264 266 268 269 271 272 274 275 277 278 280 282 283 283 285 288 290 292 293 295 296 297 297 298 299
276 275 274 273 271 270 268 267 265 264 262 261 260 260 260 261 263 264 265 267 269 270 271 272 273 274 276 278 281 284 286 287 287 290 292 294 295 297 297 297 299 300 300
273 272 273 273 272 270 268 266 265 263 261 260 259 258 258 260 263 265 267 267 267 268 270 270 271 272 276 279 282 285 288 289 290 293 294 295 296 297 297 299 302 303 303